Location: Guferjoch
(46.7462°N, 8.4506°E)
Time: 00:33:53
(UTC+00:00)

Abrixas rocket - Pass Details

Date: 14 July 2020
Orbit: 339 x 347 km, 48.4° (Epoch: 02 August)

Event Time Altitude Azimuth Distance (km) Brightness Sun altitude
Exits shadow 01:33:52 16° 287° (WNW) 1,000 4.0 -16.3°
Maximum altitude 01:36:02 79° 12° (NNE) 350 1.9 -16.1°
Drops below altitude 10° 01:38:54 10° 101° (E) 1,283 5.0 -15.9°
Sets 01:40:54 0° 102° (ESE) 2,120 6.1 -15.7°
